Location: Colle San Luigi
(43.5500°N, 13.4167°E)
Time: 00:29:25
(UTC+00:00)

BREEZE M DEB (TANK) - Pass Details

Date: 09 April 2020
Orbit: 303 x 11878 km, 49.5° (Epoch: 02 June)

Event Time Altitude Azimuth Distance (km) Brightness Sun altitude
Rises 19:14:21 0° 229° (SW) 2,177 5.7 -16.3°
Reaches altitude 10° 19:15:43 10° 226° (SW) 1,520 4.8 -16.5°
Maximum altitude 19:18:38 65° 143° (SE) 725 2.6 -17.0°
Drops below altitude 10° 19:26:25 10° 63° (ENE) 3,948 6.3 -18.2°
Sets 19:32:19 0° 62° (ENE) 6,434 7.4 -19.1°
